Погода в Актуково

Россия / Нижегородская область     55°22′37″N   45°38′16″E
темп.,
°C
ветер,
м/с
пор.,
м/с
влажн.,
%
обл.,
%
осадки,
мм/ч
давл.,
гПа
погр.,
м
27 января, ср
ср2700:000ю51192100 0.0 1018493
03:000ю61291100 0.0 1018656
06:00+1ююв61391100 0.0 1017633
09:00+1ю71589100 0.0 1016641
12:00+1ю71493100 0.0 1016660
15:00+1ю51394100 0.0 1015693
18:00+1ю51291100 0.0 1015633
21:000ю71391100 0.0 1014541
28 января, чт
чт2800:000ю61391100 0.0 1014567
03:00−1ю61293100 0.8 1014475
06:00−2ю51293100 0.7 1013483
09:00−1ю41090100 1.3 1014503
12:00−1ю51089100 0.0 1014461
15:00−2ююв4990100 0.0 1014405
18:00−4ююв4892100 0.0 1014263
21:00−7юв489487 0.0 1013191
29 января, пт
пт2900:00−9ююв369487 0.0 1014137
03:00−11юв359594 0.0 1012127
06:00−9юв4794100 0.0 1011246
09:00−8юв4995100 0.0 1009286
12:00−6юв5993100 0.0 1007454
15:00−5юв5894100 0.1 1004528
18:00−5юв61095100 1.1 1003436
21:00−5ююв51094100 1.4 1002341
30 января, сб
сб3000:00−4ююв489494 0.0 1001218
03:00−2ююв6139398 0.1 1000766
06:00−2ююв71291100 0.4 998662
09:00−2юв61294100 0.6 996658
12:00−1ююв101596100 1.3 9941002
15:00−3ююз7148584 1.7 995802
18:00−5ююз7168776 0.0 998691
21:00−5юз6148986 0.1 1001785
31 января, вс
вс3100:00−7ююз4129175 0.0 1003356
03:00−7ю4109488 0.0 1004257
06:00−7ююв4892100 0.0 1003256
09:00−5юв5996100 0.7 1001292
12:00+1ю71599100 2.1 999704
15:00+1ю81799100 4.1 996845
18:00+1ю81798100 0.8 997816
21:00−4юз7158797 1.2 1001639